Weather History for KANJ - January, 2014

Change the Weather History Date:

Thursday, January 23, 2014

  Actual Average Record
Temperature  
Mean Temperature -4 °F 15 °F  
Max Temperature 5 °F 23 °F 42 °F (1999)
Min Temperature -13 °F 7 °F -25 °F (1935)
Degree Days  
Heating Degree Days 69 50  
Month to date heating degree days 1235 1138  
Since 1 July heating degree days 4750 4397  
Moisture  
Dew Point -13 °F    
Average Humidity 67    
Maximum Humidity 83    
Minimum Humidity 51    
Precipitation  
Precipitation T in 0.07 in 0.62 in (1999)
Month to date precipitation 1.38 1.69  
Year to date precipitation 1.38 1.69  
Snow  
Snow T in 1.00 in 6.60 in (1982)
Month to date snowfall 18.1 23.8  
Since 1 July snowfall 72.8 74.0  
Snow Depth 19.00 in    
Sea Level Pressure  
Sea Level Pressure 30.36 in    
Wind  
Wind Speed 6 mph (NNW)    
Max Wind Speed 15 mph    
Max Gust Speed 21 mph    
Visibility 10 miles    
Events      
T = Trace of Precipitation, MM = Missing Value Source: NWS Daily Summary

Daily Weather History Graph

Daily Weather History Graph

Search for Another Location

Airport or City:

Trip Planner

Search our weather history database for the weather conditions in past years. The results will help you decide how hot, cold, wet, or windy it might be!

Date:

Astronomy

Jan. 23, 2014 Rise Set
Actual Time 8:10 AM EST 5:28 PM EST
Civil Twilight 7:37 AM EST 6:01 PM EST
Nautical Twilight 7:00 AM EST 6:38 PM EST
Astronomical Twilight 6:25 AM EST 7:14 PM EST
Moon 12:24 AM EST (1/23) 11:17 AM EST (1/23)
Length of Visible Light 10h 23m
Length of Day
9h 17m
Waning Gibbous, 55% of the Moon is Illuminated
Jan 23
Waning Gibbous
Jan 24
Last Quarter
Jan 30
New
Feb 6
First Quarter
Feb 14
Full

Hourly Weather History & Observations

Time (EST) Temp. Windchill Dew Point Humidity Pressure Visibility Wind Dir Wind Speed Gust Speed Precip Events Conditions
12:55 AM 3.9 °F -6.9 °F -5.1 °F 66% 30.13 in 9.0 mi ENE 5.8 mph - N/A   Overcast
1:55 AM 3.0 °F -14.1 °F -7.1 °F 63% 30.15 in 10.0 mi NE 12.7 mph 18.4 mph N/A   Overcast
2:55 AM 1.0 °F -11.7 °F -9.9 °F 60% 30.19 in 10.0 mi ENE 6.9 mph - N/A   Clear
3:55 AM -0.9 °F -15.3 °F -11.0 °F 62% 30.23 in 10.0 mi NNE 8.1 mph - N/A   Clear
4:55 AM -2.0 °F -15.4 °F -11.9 °F 63% 30.27 in 10.0 mi NE 6.9 mph - N/A   Overcast
5:55 AM -2.9 °F -15.0 °F -11.9 °F 65% 30.30 in 10.0 mi NNE 5.8 mph - N/A   Overcast
6:55 AM -4.0 °F -17.8 °F -14.1 °F 62% 30.32 in 10.0 mi NNE 6.9 mph - N/A   Clear
7:55 AM -5.1 °F -13.6 °F -14.1 °F 65% 30.36 in 10.0 mi North 3.5 mph - N/A   Clear
8:55 AM -5.1 °F -15.8 °F -16.1 °F 59% 30.40 in 10.0 mi NE 4.6 mph - N/A   Clear
9:55 AM -5.1 °F -17.6 °F -16.1 °F 59% 30.42 in 10.0 mi Variable 5.8 mph - N/A   Clear
10:55 AM -4.0 °F -16.3 °F -16.1 °F 56% 30.44 in 10.0 mi North 5.8 mph - N/A   Scattered Clouds
11:30 AM -4.0 °F -12.4 °F -15.0 °F 59% 30.40 in 9.0 mi NW 3.5 mph - N/A   Mostly Cloudy
11:44 AM -2.9 °F -13.3 °F -16.1 °F 54% 30.40 in 10.0 mi NW 4.6 mph - N/A   Mostly Cloudy
11:51 AM -2.2 °F - -14.8 °F 55% 30.39 in 10.0 mi Calm Calm - N/A   Scattered Clouds
11:55 AM -2.0 °F -10.1 °F -16.1 °F 51% 30.44 in 10.0 mi NNW 3.5 mph - N/A   Partly Cloudy
12:55 PM -0.9 °F -12.7 °F -15.0 °F 52% 30.44 in 10.0 mi NW 5.8 mph - N/A   Clear
1:55 PM -0.9 °F -19.1 °F -13.0 °F 57% 30.44 in 10.0 mi NW 12.7 mph - 0.00 in   Clear
2:55 PM -0.9 °F -16.4 °F -11.0 °F 62% 30.43 in 10.0 mi NW 9.2 mph - 0.00 in   Clear
3:55 PM -0.9 °F -18.3 °F -9.9 °F 66% 30.43 in 10.0 mi NW 11.5 mph - 0.00 in   Clear
4:55 PM -2.0 °F -16.6 °F -9.9 °F 69% 30.44 in 10.0 mi WNW 8.1 mph - N/A   Clear
5:55 PM -4.0 °F -16.3 °F -9.9 °F 76% 30.43 in 10.0 mi WNW 5.8 mph - N/A   Clear
6:55 PM -9.0 °F -20.4 °F -13.0 °F 83% 30.43 in 10.0 mi WSW 4.6 mph - N/A   Clear
7:55 PM -7.1 °F -19.9 °F -11.0 °F 83% 30.41 in 10.0 mi SSW 5.8 mph - N/A   Partly Cloudy
8:55 PM -9.9 °F -19.2 °F -14.1 °F 82% 30.40 in 10.0 mi SW 3.5 mph - N/A   Partly Cloudy
9:09 PM -8.0 °F -16.9 °F -14.1 °F 75% 30.32 in 10.0 mi SSW 3.5 mph - N/A   Mostly Cloudy
9:55 PM -6.0 °F - -11.0 °F 79% 30.37 in 10.0 mi Calm Calm - 0.00 in   Overcast
10:12 PM -6.0 °F - -11.0 °F 79% 30.30 in 10.0 mi Calm Calm - N/A   Overcast
10:55 PM -6.0 °F -14.7 °F -11.0 °F 79% 30.33 in 10.0 mi South 3.5 mph - N/A   Mostly Cloudy
11:55 PM -9.9 °F - -16.1 °F 74% 30.31 in 10.0 mi Calm Calm - N/A   Clear